N6BWX Weather Reports


time (UTC)temp
F
wind
direction
speed
knots
gust
knots
rain 1hr
in
rain 24hr
in
rain mn
in
humidity
%
barometer
mb
20260507085504 38 62 0.0 0.0 0.00 0.00 0.00 61 1020.8
20260507085005 38 62 0.0 0.0 0.00 0.00 0.00 60 1020.8
20260507084505 39 62 0.0 0.0 0.00 0.00 0.00 60 1020.9
20260507084005 39 62 0.0 0.0 0.00 0.00 0.00 64 1020.8
20260507083504 39 62 0.0 0.0 0.00 0.00 0.00 64 1020.8
20260507083005 39 62 0.0 0.0 0.00 0.00 0.00 61 1020.9
20260507082504 40 62 0.0 0.0 0.00 0.00 0.00 58 1020.9
20260507082004 40 62 0.0 0.0 0.00 0.00 0.00 61 1020.9
20260507081504 40 62 0.0 0.0 0.00 0.00 0.00 60 1020.9
20260507081004 40 62 0.0 0.0 0.00 0.00 0.00 57 1020.9
20260507080505 41 62 0.0 0.0 0.00 0.00 0.00 57 1020.9
20260507080005 41 62 0.0 0.0 0.00 0.00 0.00 58 1020.9
20260507075505 41 62 0.0 0.0 0.00 0.00 0.00 57 1021.0
20260507074504 42 62 0.0 0.0 0.00 0.00 0.00 55 1020.9
20260507074005 42 62 0.0 0.0 0.00 0.00 0.00 57 1020.9
20260507073004 41 62 0.0 0.0 0.00 0.00 0.00 56 1020.9
20260507072004 41 62 0.0 0.0 0.00 0.00 0.00 55 1020.9
20260507071504 41 62 0.0 0.0 0.00 0.00 0.00 55 1020.9
20260507071005 41 62 0.0 0.0 0.00 0.00 0.00 54 1020.9
20260507070505 41 62 0.0 0.0 0.00 0.00 0.00 54 1020.8
20260507070009 41 62 0.0 0.0 0.00 0.00 0.00 53 1020.9
20260507065004 41 62 0.0 0.0 0.00 0.00 0.00 55 1020.9
20260507063505 41 62 0.0 0.0 0.00 0.00 0.00 52 1021.0
20260507062505 41 62 0.0 0.0 0.00 0.00 0.00 52 1020.9
20260507062005 41 62 0.0 0.0 0.00 0.00 0.00 50 1020.9
20260507061504 42 55 0.0 0.0 0.00 0.00 0.00 51 1020.9
20260507061004 42 55 0.0 0.0 0.00 0.00 0.00 50 1020.9
20260507060504 42 55 0.0 0.0 0.00 0.00 0.00 49 1020.9
20260507055004 44 55 0.0 0.0 0.00 0.00 0.00 47 1020.7
20260507054504 44 55 0.0 0.0 0.00 0.00 0.00 49 1020.8
20260507054004 43 55 0.0 0.0 0.00 0.00 0.00 50 1020.7
20260507053504 44 55 0.0 0.0 0.00 0.00 0.00 48 1020.7
20260507053005 44 49 0.0 0.0 0.00 0.00 0.00 48 1020.8
20260507052504 44 49 0.0 0.0 0.00 0.00 0.00 47 1020.8
20260507052005 44 49 0.0 0.0 0.00 0.00 0.00 47 1020.9
20260507051505 45 49 0.0 0.0 0.00 0.00 0.00 46 1021.0
20260507051004 45 49 0.0 0.0 0.00 0.00 0.00 46 1021.0
20260507050504 45 49 0.0 0.0 0.00 0.00 0.00 45 1021.0
20260507050005 46 49 0.0 0.0 0.00 0.00 0.00 44 1021.0
20260507045504 46 83 0.0 0.0 0.00 0.00 0.00 43 1020.9
20260507045004 46 68 0.0 0.0 0.00 0.00 0.00 45 1020.9
20260507044504 45 68 0.0 0.0 0.00 0.00 0.00 45 1020.9
20260507044004 46 68 0.0 0.0 0.00 0.00 0.00 43 1021.0
20260507043504 46 68 0.0 0.0 0.00 0.00 0.00 45 1021.1
20260507043004 46 68 0.0 0.0 0.00 0.00 0.00 43 1021.1
20260507042504 47 68 0.0 0.0 0.00 0.00 0.00 43 1021.0
20260507042004 47 68 0.0 0.0 0.00 0.00 0.00 41 1020.9
20260507041504 47 68 0.0 0.0 0.00 0.00 0.00 40 1020.8
20260507041004 48 68 0.0 0.0 0.00 0.00 0.00 40 1020.8
20260507040504 48 68 0.0 0.0 0.00 0.00 0.00 40 1020.7
20260507040005 49 68 0.0 0.0 0.00 0.00 0.00 39 1020.6
20260507035004 50 68 0.0 0.0 0.00 0.00 0.00 37 1020.7
20260507034504 51 47 0.0 0.0 0.00 0.00 0.00 37 1020.7
20260507033004 53 45 0.0 0.0 0.00 0.00 0.00 35 1020.5
20260507032504 53 45 0.0 0.0 0.00 0.00 0.00 34 1020.5
20260507032004 54 45 0.0 0.0 0.00 0.00 0.00 34 1020.4
20260507031504 54 45 0.0 0.0 0.00 0.00 0.00 34 1020.4
20260507031004 55 45 0.0 0.0 0.00 0.00 0.00 34 1020.3
20260507030504 55 45 0.0 0.0 0.00 0.00 0.00 33 1020.2
20260507030004 55 45 0.0 0.0 0.00 0.00 0.00 33 1020.2
20260507025504 56 45 0.0 0.0 0.00 0.00 0.00 33 1020.1
20260507025004 56 45 0.0 0.0 0.00 0.00 0.00 33 1020.0
20260507024004 57 45 0.0 0.0 0.00 0.00 0.00 32 1019.9
20260507023504 57 46 0.0 0.0 0.00 0.00 0.00 32 1019.9
20260507023004 57 325 0.0 0.0 0.00 0.00 0.00 32 1019.8
20260507022504 57 52 0.0 0.0 0.00 0.00 0.00 32 1019.9
20260507020504 59 112 0.0 0.0 0.00 0.00 0.00 30 1020.0
20260507020003 60 38 0.0 0.9 0.00 0.00 0.00 29 1020.0
20260507015507 60 3 0.0 1.7 0.00 0.00 0.00 28 1019.9
20260507015007 59 285 0.0 4.3 0.00 0.00 0.00 29 1020.0
20260507014507 59 29 0.0 4.3 0.00 0.00 0.00 28 1020.0
20260507014008 60 83 0.0 1.7 0.00 0.00 0.00 28 1020.0
20260507013007 61 118 0.0 0.0 0.00 0.00 0.00 27 1019.9
20260507012507 61 55 0.0 0.9 0.00 0.00 0.00 27 1019.9
20260507012007 61 68 0.0 0.9 0.00 0.00 0.00 26 1019.9
20260507011507 61 55 0.0 0.9 0.00 0.00 0.00 25 1020.0
20260507011007 62 18 0.0 0.9 0.00 0.00 0.00 23 1019.9
20260507010507 63 50 0.0 2.6 0.00 0.00 0.00 22 1019.9
20260507010007 63 331 0.0 2.6 0.00 0.00 0.00 22 1019.8
20260507005007 62 238 0.0 0.9 0.00 0.00 0.00 25 1019.8
20260507004507 63 52 0.0 0.9 0.00 0.00 0.00 25 1019.8
20260507002507 62 48 0.9 5.2 0.00 0.00 0.00 28 1019.8
20260507002007 62 32 0.0 2.6 0.00 0.00 0.00 26 1019.8
20260507001507 63 72 0.0 2.6 0.00 0.00 0.00 27 1019.8
20260507001006 63 349 0.9 2.6 0.00 0.00 0.00 27 1019.8
20260507000506 63 114 0.0 2.6 0.00 0.00 0.00 28 1019.8
20260507000006 63 291 0.0 2.6 0.00 0.00 0.00 28 1019.8
20260506235507 63 311 0.0 2.6 0.00 0.00 0.00 29 1019.8
20260506235007 62 343 0.0 2.6 0.00 0.00 0.00 30 1019.8
20260506234507 62 279 0.0 6.1 0.00 0.00 0.00 32 1019.7
20260506234007 62 55 0.9 6.1 0.00 0.00 0.00 31 1019.7
20260506232507 62 81 0.0 0.0 0.00 0.00 0.00 33 1019.6
20260506231507 61 358 0.0 8.7 0.00 0.00 0.00 34 1019.7
20260506231007 61 61 0.0 6.1 0.00 0.00 0.00 35 1019.7
20260506230506 61 77 0.9 7.8 0.00 0.00 0.00 35 1019.5
20260506230006 61 29 0.9 7.8 0.00 0.00 0.00 35 1019.6
20260506225506 62 44 0.9 7.8 0.00 0.00 0.00 35 1019.6
20260506225007 62 69 0.0 2.6 0.00 0.00 0.00 34 1019.6
20260506224507 62 247 0.0 8.7 0.00 0.00 0.00 34 1019.7
20260506224007 61 1 0.0 8.7 0.00 0.00 0.00 35 1019.7
20260506223507 61 62 0.0 13.0 0.00 0.00 0.00 34 1019.7
20260506223006 61 59 0.0 13.0 0.00 0.00 0.00 36 1019.9
20260506222007 61 11 0.9 8.7 0.00 0.00 0.00 36 1020.1
20260506221507 62 32 0.0 8.7 0.00 0.00 0.00 34 1020.2
20260506221006 61 64 0.0 8.7 0.00 0.00 0.00 35 1020.3
20260506220506 62 34 0.0 5.2 0.00 0.00 0.00 34 1020.5
20260506220006 62 319 0.0 2.6 0.00 0.00 0.00 35 1020.6
20260506215506 61 32 0.0 2.6 0.00 0.00 0.00 35 1020.7
20260506215006 61 92 0.0 2.6 0.00 0.00 0.00 35 1020.7
20260506214506 60 164 0.0 7.0 0.00 0.00 0.00 37 1020.7
20260506214006 60 71 0.0 7.0 0.00 0.00 0.00 37 1020.7
20260506213506 61 242 0.0 1.7 0.00 0.00 0.00 37 1020.9
20260506213007 61 277 0.0 1.7 0.00 0.00 0.00 36 1020.9
20260506212506 61 338 0.0 1.7 0.00 0.00 0.00 37 1021.1
20260506212007 60 8 0.0 1.7 0.00 0.00 0.00 38 1021.2
20260506211507 60 0 0.0 7.8 0.00 0.00 0.00 38 1021.1
20260506211007 60 52 0.0 7.8 0.00 0.00 0.00 36 1021.2
20260506210506 62 101 0.0 2.6 0.00 0.00 0.00 35 1021.3
20260506210007 61 53 0.0 10.4 0.00 0.00 0.00 37 1021.4
20260506205006 59 52 1.7 10.4 0.00 0.00 0.00 38 1021.3
20260506204507 59 79 0.0 6.1 0.00 0.00 0.00 38 1021.2
20260506204007 59 51 0.0 1.7 0.00 0.00 0.00 39 1021.3
20260506203006 60 65 0.0 7.0 0.00 0.00 0.00 36 1021.5
20260506202006 60 18 0.0 1.7 0.00 0.00 0.00 38 1021.4
20260506201506 60 72 0.0 1.7 0.00 0.00 0.00 36 1021.3
20260506201006 61 350 0.0 6.1 0.00 0.00 0.00 36 1021.4
20260506200506 60 237 0.9 6.1 0.00 0.00 0.00 37 1021.5
20260506200006 60 323 0.0 4.3 0.00 0.00 0.00 37 1021.4
20260506195006 59 315 0.0 6.1 0.00 0.00 0.00 39 1021.3
20260506194506 59 324 0.0 10.4 0.00 0.00 0.00 38 1021.3
20260506194006 60 69 0.9 10.4 0.00 0.00 0.00 37 1021.3
20260506193506 61 231 0.0 1.7 0.00 0.00 0.00 37 1021.4
20260506193006 60 235 0.0 1.7 0.00 0.00 0.00 37 1021.3
20260506192506 60 80 0.0 1.7 0.00 0.00 0.00 38 1021.4
20260506192006 60 344 0.0 2.6 0.00 0.00 0.00 38 1021.5
20260506191506 59 315 0.0 2.6 0.00 0.00 0.00 39 1021.5
20260506191006 59 318 0.0 1.7 0.00 0.00 0.00 38 1021.6
20260506190506 59 34 0.0 1.7 0.00 0.00 0.00 39 1021.7
20260506190006 58 283 0.0 2.6 0.00 0.00 0.00 40 1021.7
20260506185007 57 329 0.0 5.2 0.00 0.00 0.00 41 1021.8
20260506184506 56 326 0.0 11.3 0.00 0.00 0.00 41 1021.8
20260506184007 56 51 0.0 11.3 0.00 0.00 0.00 40 1021.8
20260506183506 57 81 0.9 8.7 0.00 0.00 0.00 40 1021.8
20260506183006 56 87 0.9 12.2 0.00 0.00 0.00 40 1021.8
20260506182506 57 100 0.0 12.2 0.00 0.00 0.00 40 1021.8
20260506182006 57 65 0.0 10.4 0.00 0.00 0.00 40 1021.8
20260506181506 57 84 0.9 10.4 0.00 0.00 0.00 40 1021.8
20260506181006 56 73 0.0 7.8 0.00 0.00 0.00 39 1021.9
20260506180506 56 14 0.0 7.8 0.00 0.00 0.00 40 1021.8
20260506175506 56 308 0.9 2.6 0.00 0.00 0.00 38 1021.8
20260506175006 56 62 0.0 8.7 0.00 0.00 0.00 39 1021.7
20260506174506 56 291 0.0 8.7 0.00 0.00 0.00 40 1021.7
20260506174006 55 68 1.7 8.7 0.00 0.00 0.00 40 1021.7
20260506173507 55 67 0.9 10.4 0.00 0.00 0.00 38 1021.4
20260506173006 55 63 0.0 10.4 0.00 0.00 0.00 40 1021.5
20260506172506 56 81 2.6 10.4 0.00 0.00 0.00 39 1021.4
20260506171506 56 52 0.9 8.7 0.00 0.00 0.00 39 1021.5
20260506171006 55 357 0.0 8.7 0.00 0.00 0.00 39 1021.5
20260506170505 55 354 0.0 4.3 0.00 0.00 0.00 38 1021.5
20260506170006 55 64 0.0 4.3 0.00 0.00 0.00 39 1021.5
20260506165505 56 66 0.9 4.3 0.00 0.00 0.00 38 1021.5
20260506165006 56 88 0.0 0.9 0.00 0.00 0.00 38 1021.4
20260506164506 55 47 0.0 0.9 0.00 0.00 0.00 39 1021.5
20260506164005 55 44 0.0 2.6 0.00 0.00 0.00 39 1021.5
20260506163506 55 75 0.0 4.3 0.00 0.00 0.00 39 1021.5
20260506163006 54 71 0.0 4.3 0.00 0.00 0.00 40 1021.4
20260506162506 54 82 0.0 2.6 0.00 0.00 0.00 39 1021.3
20260506161505 55 49 0.0 0.9 0.00 0.00 0.00 39 1021.3
20260506161006 54 84 0.0 0.9 0.00 0.00 0.00 39 1021.3
20260506160505 53 318 0.0 0.0 0.00 0.00 0.00 40 1021.3
20260506160006 53 332 0.0 0.0 0.00 0.00 0.00 41 1021.4
20260506155505 53 310 0.0 0.9 0.00 0.00 0.00 40 1021.3
20260506155006 52 343 0.0 0.9 0.00 0.00 0.00 40 1021.3
20260506154006 50 312 0.0 1.7 0.00 0.00 0.00 44 1021.2
20260506153506 48 277 0.0 1.7 0.00 0.00 0.00 48 1021.2
20260506153005 47 265 0.0 0.9 0.00 0.00 0.00 52 1021.1
20260506152506 46 262 0.0 0.0 0.00 0.00 0.00 57 1021.1
20260506152005 45 83 0.0 0.0 0.00 0.00 0.00 61 1021.2
20260506151506 43 83 0.0 0.0 0.00 0.00 0.00 66 1021.1
20260506151005 42 83 0.0 0.0 0.00 0.00 0.00 68 1021.1
20260506150505 40 83 0.0 0.0 0.00 0.00 0.00 74 1021.2
20260506145505 38 83 0.0 0.0 0.00 0.00 0.00 80 1021.0
20260506145006 37 83 0.0 0.0 0.00 0.00 0.00 83 1021.1
20260506144505 36 83 0.0 0.0 0.00 0.00 0.00 85 1021.1
20260506144005 36 83 0.0 0.0 0.00 0.00 0.00 86 1021.1
20260506143506 35 83 0.0 0.0 0.00 0.00 0.00 87 1021.0
20260506143006 35 83 0.0 0.0 0.00 0.00 0.00 88 1021.0
20260506142505 34 83 0.0 0.0 0.00 0.00 0.00 89 1021.1
20260506142006 33 83 0.0 0.0 0.00 0.00 0.00 90 1021.1
20260506141505 33 83 0.0 0.0 0.00 0.00 0.00 90 1021.0
20260506141005 32 83 0.0 0.0 0.00 0.00 0.00 90 1020.9
20260506140505 32 83 0.0 0.0 0.00 0.00 0.00 90 1020.8
20260506140005 31 83 0.0 0.0 0.00 0.00 0.00 90 1020.8
20260506135005 31 83 0.0 0.0 0.00 0.00 0.00 90 1020.6
20260506134505 31 83 0.0 0.0 0.00 0.00 0.00 90 1020.6
20260506134005 30 83 0.0 0.0 0.00 0.00 0.00 91 1020.5
20260506133505 30 83 0.0 0.0 0.00 0.00 0.00 92 1020.4
20260506132505 29 83 0.0 0.0 0.00 0.00 0.00 92 1020.4
20260506132006 29 83 0.0 0.0 0.00 0.00 0.00 92 1020.4
20260506131505 28 83 0.0 0.0 0.00 0.00 0.00 92 1020.3
20260506131005 28 83 0.0 0.0 0.00 0.00 0.00 91 1020.1
20260506130006 28 83 0.0 0.0 0.00 0.00 0.00 90 1019.9
20260506125506 28 83 0.0 0.0 0.00 0.00 0.00 90 1019.8
20260506125005 28 83 0.0 0.0 0.00 0.00 0.00 90 1019.8
20260506124006 29 83 0.0 0.0 0.00 0.00 0.00 90 1019.6
20260506123505 29 83 0.0 0.0 0.00 0.00 0.00 90 1019.6
20260506122505 30 83 0.0 0.0 0.00 0.00 0.00 92 1019.5
20260506122005 30 83 0.0 0.0 0.00 0.00 0.00 92 1019.5
20260506120505 29 83 0.0 0.0 0.00 0.00 0.00 92 1019.4
20260506120005 29 83 0.0 0.0 0.00 0.00 0.00 92 1019.5
20260506115506 29 83 0.0 0.0 0.00 0.00 0.00 92 1019.5
20260506115005 29 83 0.0 0.0 0.00 0.00 0.00 92 1019.5
20260506114505 29 83 0.0 0.0 0.00 0.00 0.00 92 1019.4
20260506113505 29 83 0.0 0.0 0.00 0.00 0.00 92 1019.3
20260506113005 29 83 0.0 0.0 0.00 0.00 0.00 92 1019.3
20260506112505 29 83 0.0 0.0 0.00 0.00 0.00 91 1019.2
20260506112005 29 83 0.0 0.0 0.00 0.00 0.00 92 1019.2
20260506110505 29 83 0.0 0.0 0.00 0.00 0.00 92 1019.1
20260506110005 29 83 0.0 0.0 0.00 0.00 0.00 92 1019.1
20260506105506 30 83 0.0 0.0 0.00 0.00 0.00 93 1019.0
20260506105005 29 83 0.0 0.0 0.00 0.00 0.00 92 1018.9
20260506104005 29 83 0.0 0.0 0.00 0.00 0.00 92 1018.9
20260506103505 29 83 0.0 0.0 0.00 0.00 0.00 91 1018.8
20260506102505 30 83 0.0 0.0 0.00 0.00 0.00 92 1018.8
20260506102006 30 83 0.0 0.0 0.00 0.00 0.00 92 1018.7
20260506101505 30 83 0.0 0.0 0.00 0.00 0.00 92 1018.7
20260506101005 30 83 0.0 0.0 0.00 0.00 0.00 92 1018.7
20260506100505 29 83 0.0 0.0 0.00 0.00 0.00 91 1018.6
20260506100005 30 83 0.0 0.0 0.00 0.00 0.00 91 1018.6
20260506095505 30 83 0.0 0.0 0.00 0.00 0.00 92 1018.6
20260506095005 30 83 0.0 0.0 0.00 0.00 0.00 92 1018.5
20260506094505 30 83 0.0 0.0 0.00 0.00 0.00 92 1018.6
20260506094005 30 83 0.0 0.0 0.00 0.00 0.00 92 1018.6
20260506093505 30 83 0.0 0.0 0.00 0.00 0.00 91 1018.5
20260506093005 30 83 0.0 0.0 0.00 0.00 0.00 91 1018.5
20260506092004 29 83 0.0 0.0 0.00 0.00 0.00 90 1018.2
20260506091504 30 83 0.0 0.0 0.00 0.00 0.00 90 1018.3
20260506091005 30 83 0.0 0.0 0.00 0.00 0.00 90 1018.2